This is the latest recevied weather packets stored in our database for station/object N4WFF. If no packets are shown the sender has not sent any weather packets the latest 1 day(s).
| Time | Temp. | Humidity | Pressure | Rain* | Wind** | Luminosity | Snow |
|---|---|---|---|---|---|---|---|
| 1778010055 | 26.67° C | 56% | 1014.4 hPa | 0 mm | 1.79 m/s, 230° | 844 W/m² | - |
| 1778009756 | 26.67° C | 56% | 1014.4 hPa | 0 mm | 3.13 m/s, 182° | 860 W/m² | - |
| 1778009455 | 26.67° C | 56% | 1014.5 hPa | 0 mm | 3.58 m/s, 198° | 793 W/m² | - |
| 1778009155 | 26.67° C | 55% | 1014.5 hPa | 0 mm | 2.68 m/s, 232° | 916 W/m² | - |
| 1778008856 | 26.11° C | 58% | 1014.5 hPa | 0 mm | 1.79 m/s, 205° | 911 W/m² | - |
| 1778008555 | 26.11° C | 57% | 1014.6 hPa | 0 mm | 3.13 m/s, 242° | 843 W/m² | - |
| 1778008255 | 26.11° C | 57% | 1014.6 hPa | 0 mm | 3.13 m/s, 202° | 900 W/m² | - |
| 1778007707 | 25.56° C | 59% | 1014.9 hPa | 0 mm | 1.79 m/s, 198° | 500 W/m² | - |
| 1778007355 | 25.56° C | 59% | 1015.1 hPa | 0 mm | 2.24 m/s, 189° | 849 W/m² | - |
| 1778007056 | 25.56° C | 58% | 1015.2 hPa | 0 mm | 2.68 m/s, 178° | 747 W/m² | - |
| 1778006756 | 25.56° C | 57% | 1015.3 hPa | 0 mm | 2.68 m/s, 188° | 776 W/m² | - |
| 1778006455 | 25.56° C | 59% | 1015.3 hPa | 0 mm | 2.24 m/s, 209° | 960 W/m² | - |
| 1778006155 | 25° C | 58% | 1015.4 hPa | 0 mm | 2.24 m/s, 234° | 966 W/m² | - |
| 1778005856 | 25° C | 61% | 1015.6 hPa | 0 mm | 2.68 m/s, 226° | 1016 W/m² | - |
| 1778005555 | 25.56° C | 59% | 1015.6 hPa | 0 mm | 2.68 m/s, 188° | 479 W/m² | - |
| 1778005255 | 25° C | 59% | 1015.6 hPa | 0 mm | 2.68 m/s, 178° | 1053 W/m² | - |
| 1778004956 | 24.44° C | 62% | 1015.7 hPa | 0 mm | 2.68 m/s, 186° | 1051 W/m² | - |
| 1778004656 | 25° C | 60% | 1015.6 hPa | 0 mm | 3.13 m/s, 232° | 325 W/m² | - |
| 1778004357 | 25° C | 62% | 1015.7 hPa | 0 mm | 2.68 m/s, 169° | 1126 W/m² | - |
| 1778004055 | 25° C | 59% | 1015.7 hPa | 0 mm | 2.24 m/s, 194° | 768 W/m² | - |
| 1778003755 | 25° C | 62% | 1015.6 hPa | 0 mm | 3.13 m/s, 202° | 779 W/m² | - |
| 1778003457 | 25° C | 59% | 1015.7 hPa | 0 mm | 2.68 m/s, 241° | 1085 W/m² | - |
| 1778003156 | 25° C | 58% | 1015.7 hPa | 0 mm | 2.24 m/s, 162° | 1055 W/m² | - |
| 1778002856 | 25° C | 61% | 1015.7 hPa | 0 mm | 2.24 m/s, 210° | 857 W/m² | - |
| 1778002556 | 25° C | 61% | 1015.8 hPa | 0 mm | 2.68 m/s, 182° | 1019 W/m² | - |
* Rain latest hour (hover to see other rain measurements)
** Current wind speed in m/s (hover to see current wind gust speed)